Regional Weather Roundup
Issued by NWS

Home | Current Version | Previous Version | Text Only | Print | Product List | Glossary Off
Versions: 1 2 3 4 5 6 7 8 9 10 11 12 13 14 15 16 17 18 19 20 21 22 23 24 25 26 27 28 29 30 31 32 33 34 35 36 37 38 39 40 41 42 43 44 45 46 47 48 49 50

000
ASUS45 KBOU 201707
RWRCO

WEATHER ROUNDUP FOR COLORADO
NATIONAL WEATHER SERVICE DENVER/BOULDER CO
1000 AM MST SAT DEC 20 2014

NOTE: "FAIR" INDICATES FEW OR NO CLOUDS BELOW 12000 FEET WITH NO
SIGNIFICANT WEATHER AND/OR OBSTRUCTIONS TO VISIBILITY.

COZ001>005-013-030-031-201800-
...NORTHWEST COLORADO...

CITY           SKY/WX    TMP DP  RH WIND       PRES   REMARKS
CRAIG          LGT SNOW  26  22  84 CALM      30.13F FOG
HAYDEN         CLOUDY    23  18  80 E6        30.13S WCI  16
MEEKER         FLURRIES  26  20  77 CALM      30.14S
MOUNT WERNER   NOT AVBL
STEAMBOAT SPGS CLOUDY    21  18  88 CALM      30.13S
WALDEN         CLOUDY    25  18  74 S10       30.08R WCI  15
$$

COZ006>008-011-201800-
...WEST CENTRAL VALLEYS...

CITY           SKY/WX    TMP DP  RH WIND       PRES   REMARKS
GRAND JUNCTION CLOUDY    31  25  78 S5        30.20S WCI  26
MONTROSE       CLOUDY    30  22  72 NW5       30.21R WCI  25
EAGLE          PTSUNNY   19  16  86 CALM      30.21S
RIFLE          CLOUDY    28  22  78 CALM      30.20S
DELTA          CLOUDY    31  25  78 CALM      30.22S
NUCLA          CLOUDY    28  21  74 CALM      30.24R
$$

COZ017>023-064>068-201800-
...SOUTHWEST COLORADO...

CITY           SKY/WX    TMP DP  RH WIND       PRES   REMARKS
DURANGO        SUNNY     29  23  78 CALM      30.18R
CORTEZ         SUNNY     32  22  66 CALM      30.21R
PAGOSA SPRINGS SUNNY     26  19  75 CALM      30.15F
TELLURIDE      CLOUDY    27  19  72 E3        30.17R
WOLF CREEK PAS MOSUNNY   23  10  58 MISG      30.15S
$$

COZ009-010-012-014-032>034-037-058>063-201800-
...CENTRAL COLORADO...

CITY           SKY/WX    TMP DP  RH WIND       PRES   REMARKS
ASPEN          PTSUNNY   21  15  78 N6        30.12S WCI  13
BUENA VISTA    SUNNY     28  11  49 NW3       30.11S
COPPER MTN     LGT SNOW  23  14  68 S8        30.10S WCI  14
BERTHOUD PASS  CLOUDY    12   7  79 MISG      30.05S
COTTONWOOD PAS PTSUNNY   30  10  43 E5        30.10R WCI  25
GUNNISON       PTSUNNY   12   5  73 CALM      30.25S
KREMMLING      CLOUDY    19  10  68 CALM      30.16F
LEADVILLE      CLOUDY    25  15  66 N8        30.08R WCI  16
MONARCH PASS   PTSUNNY   14  10  85 MISG      30.20R
SALIDA         SUNNY     28  13  52 N7        30.17F WCI  21
SUNLIGHT       CLOUDY   N/A N/A N/A CALM      30.13S
WILKERSON PASS CLOUDY    23  12  63 W3        30.12R
$$

COZ069>075-201800-
...SAN LUIS VALLEY/SANGRE DE CRISTO MOUNTAINS...

CITY           SKY/WX    TMP DP  RH WIND       PRES   REMARKS
ALAMOSA        PTSUNNY   20  14  77 CALM      30.17S
LA VETA PASS   PTSUNNY   21  10  63 S6        30.11R WCI  14
SAGUACHE       MOSUNNY   25  12  58 CALM      30.17S
$$

COZ035-036-038>040-201800-
...NORTHERN COLORADO FRONT RANGE...

CITY           SKY/WX    TMP DP  RH WIND       PRES   REMARKS
DENVER INTL AP CLOUDY    38  20  48 W9        30.01R
DMNS CITY PARK   N/A     38  19  46 E3        30.00F
AURORA         PTSUNNY   40  19  43 S6        30.02R
FRONT RANGE AP NOT AVBL
ERIE MUNI ARPT   N/A     29  23  78 CALM      30.03R
BOULDER MUN AP CLOUDY    32  21  64 CALM      30.02R
CENTENNIAL     CLOUDY    39  21  48 S5        30.01R
BROOMFIELD     PTSUNNY   36  19  51 VRB3      30.01R
FORT COLLINS   CLOUDY    30  21  69 CALM      30.04S
LONGMONT       CLOUDY    34  24  65 CALM      30.05R
$$

COZ041-046-047-076>085-087-088-201800-
...PIKES PEAK/PALMER DIVIDE AND SOUTHERN FOOTHILLS...

CITY           SKY/WX    TMP DP  RH WIND       PRES   REMARKS
COLO. SPRINGS  PTSUNNY   45  12  26 CALM      30.03S
A. F. ACADEMY  CLOUDY    39  19  45 NW5       30.03R
ELLICOTT       NOT AVBL
FALCON         PTSUNNY   45  13  26 SW3       30.04S
FORT CARSON    CLOUDY    41  19  42 N6        30.01S
LIMON          PTSUNNY   37  25  61 NE3       30.03R
MONUMENT HILL  CLOUDY    37  19  48 S5        30.02R
TRINIDAD       PTSUNNY   36  14  40 W8        30.05F
$$

COZ042>045-048>051-090-091-201800-
...NORTHEAST COLORADO...

CITY           SKY/WX    TMP DP  RH WIND       PRES   REMARKS
GREELEY ARPT   CLOUDY    28  16  59 CALM      30.03S
AKRON          CLOUDY    31  21  66 NW6       30.02R WCI  25
BURLINGTON     MOSUNNY   43  29  57 W8        30.02S
WRAY           CLOUDY    31  25  76 W6        30.04R WCI  26
STERLING       CLOUDY    23  23 100 SW7       30.04R WCI  15
HOLYOKE        CLOUDY    34  28  80 W9        30.03R WCI  26
FORT MORGAN    CLOUDY    33  22  64 NW7       30.04S WCI  26
$$

COZ086-089-092>099-201800-
...SOUTHEAST COLORADO...

CITY           SKY/WX    TMP DP  RH WIND       PRES   REMARKS
PUEBLO         CLOUDY    33  21  61 CALM      30.03F
LA JUNTA       PTSUNNY   33  24  69 W6        30.05R WCI  28
LAMAR          MOSUNNY   36  27  69 NW13      30.04S
SPRINGFIELD      N/A     47  22  37 CALM      30.03F
$$



USA.gov is the U.S. government's official web portal to all federal, state and local government web resources and services.